Home   Weather   Nikšić   Past weeks

Flag for Montenegro Past Weather in Nikšić, Montenegro — Yesterday and Last 2 Weeks

Now
34 °F

Clear.


Feels Like: 34 °F
Forecast: 10 / 50 °F
Wind: 2 mph from North

Location: Podgorica Titograd

Current Time: Dec 8, 2016 at 3:33:46 am

Latest Report: Dec 8, 2016 at 3:00 am


Visibility: 10 mi

Pressure: 30.63 "Hg (28.30 "Hg at 635m altitude)

Humidity: 56%

Dew Point: 19 °F

Location of NikšićLocation

Past Weather in Nikšić — Graph

°F

Nikšić Temperature Yesterday

Maximum temperature yesterday: 57 °F (at 11:00 am)
Minimum temperature yesterday: 34 °F (at 1:30 am)
Average temperature yesterday: 46 °F

High & Low Weather Summary for the Past Weeks

 TemperatureHumidityPressure
High63 °F (Nov 23, 1:30 pm)100% (Nov 24, 5:30 am)30.63 "Hg (Nov 24, 5:30 am)
Low30 °F (Dec 5, 4:30 am)21% (Dec 5, 2:00 pm)29.80 "Hg (Nov 28, 1:30 am)
Average45 °F66%30.18 "Hg
* Reported Nov 23 2:00 am — Dec 8 2:30 am, Nikšić, Weather by CustomWeather, © 2016

Note: Actual official high and low records may vary slightly from our data, if they occured in-between our weather recording intervals... More about our weather records

Advertising

Nikšić Weather History for the Previous 24 Hours

Scroll right to see more
 ConditionsComfort  
Time TempWeatherWind HumidityBarometerVisibility
2:30 am
Thu, Dec 8
36 °FPassing clouds.5 mph52%30.63 "HgN/A
2:00 am34 °FClear.1 mph56%30.63 "Hg10 mi
1:30 am36 °FClear.1 mph52%30.63 "Hg10 mi
1:00 am37 °FClear.6 mph48%30.60 "Hg10 mi
12:30 am41 °FClear.7 mph39%30.60 "Hg10 mi
12:00 am41 °FPassing clouds.8 mph39%30.60 "HgN/A
11:30 pm
Wed, Dec 7
43 °FClear.8 mph39%30.60 "Hg10 mi
11:00 pm45 °FPassing clouds.10 mph34%30.60 "HgN/A
10:30 pm43 °FPassing clouds.9 mph39%30.60 "HgN/A
10:00 pm43 °FClear.9 mph39%30.57 "Hg10 mi
9:30 pm43 °FClear.10 mph42%30.57 "Hg10 mi
9:00 pm45 °FClear.10 mph37%30.57 "Hg10 mi
8:30 pm45 °FClear.12 mph39%30.57 "Hg10 mi
8:00 pm46 °FClear.9 mph37%30.54 "Hg10 mi
7:30 pm46 °FClear.16 mph37%30.54 "Hg10 mi
7:00 pm45 °FPassing clouds.13 mph39%30.54 "HgN/A
6:30 pm46 °FClear.15 mph37%30.51 "Hg10 mi
6:00 pm46 °FPassing clouds.13 mph40%30.51 "HgN/A
5:30 pm46 °FClear.12 mph40%30.51 "Hg10 mi
5:00 pm48 °FClear.14 mph37%30.48 "Hg10 mi
4:30 pm48 °FPassing clouds.15 mph37%30.48 "HgN/A
4:00 pm50 °FPassing clouds.13 mph35%30.45 "HgN/A
3:30 pm52 °FSunny.13 mph32%30.45 "Hg10 mi
3:00 pm54 °FPassing clouds.10 mph30%30.45 "HgN/A
2:30 pm54 °FSunny.12 mph30%30.45 "Hg10 mi
2:00 pm55 °FPassing clouds.15 mph28%30.42 "HgN/A
1:30 pm55 °FSunny.16 mph28%30.42 "Hg10 mi
1:00 pm57 °FPassing clouds.21 mph27%30.42 "HgN/A
12:30 pm57 °FPassing clouds.20 mph27%30.42 "HgN/A
12:00 pm57 °FPassing clouds.17 mph27%30.45 "HgN/A
11:30 am57 °FSunny.18 mph25%30.45 "Hg10 mi
11:00 am57 °FSunny.20 mph25%30.45 "Hg10 mi
10:30 am55 °FPassing clouds.20 mph26%30.45 "HgN/A
10:00 am55 °FSunny.16 mph31%30.45 "Hg10 mi
9:30 am54 °FSunny.21 mph33%30.45 "Hg10 mi
9:00 am54 °FPassing clouds.15 mph33%30.45 "HgN/A
8:30 am52 °FSunny.15 mph38%30.45 "Hg10 mi
8:00 am50 °FSunny.16 mph40%30.45 "Hg10 mi
7:30 am48 °FSunny.8 mph43%30.42 "Hg10 mi
7:00 am45 °FPassing clouds.7 mph49%30.42 "HgN/A
6:30 am36 °FClear.2 mph70%30.42 "Hg10 mi
6:00 am39 °FClear.2 mph61%30.39 "Hg10 mi
5:30 am36 °FClear.2 mph75%30.39 "Hg10 mi
5:00 am37 °FPassing clouds.3 mph87%30.39 "HgN/A
4:30 am34 °FClear.1 mph87%30.39 "Hg10 mi
3:30 am36 °FClear.No wind87%30.39 "Hg10 mi
3:00 am43 °FPassing clouds.5 mph57%30.36 "HgN/A
Weather by CustomWeather, © 2016

See weather overviewHow to use our weather pages